Time,TemperatureF,DewpointF,PressureIn,WindDirection,WindDirectionDegrees,WindSpeedMPH,WindSpeedGustMPH,Humidity,HourlyPrecipIn,Conditions,Clouds,dailyrainin,SoftwareType,DateUTC
2013-05-14 00:03:00,60.8,49.6,29.98,SSW,192,4.9,6.3,66,0.00,,CLR,0.00,VWS V14.01,2013-05-14 05:03:00,
2013-05-14 00:08:00,60.6,49.4,29.98,South,186,4.0,5.4,66,0.00,,CLR,0.00,VWS V14.01,2013-05-14 05:08:00,
2013-05-14 00:13:00,60.6,49.4,29.98,SE,136,4.0,6.3,66,0.00,,CLR,0.00,VWS V14.01,2013-05-14 05:13:00,
2013-05-14 00:18:00,60.4,49.2,29.98,South,183,5.8,6.3,66,0.00,,CLR,0.00,VWS V14.01,2013-05-14 05:18:00,
2013-05-14 00:23:00,60.4,49.2,29.98,South,180,0.0,8.1,66,0.00,,CLR,0.00,VWS V14.01,2013-05-14 05:23:00,
2013-05-14 00:28:00,60.3,49.1,29.98,SSW,200,3.6,5.4,66,0.00,,CLR,0.00,VWS V14.01,2013-05-14 05:28:00,
2013-05-14 00:33:00,60.3,49.1,29.98,SSE,167,2.7,10.1,66,0.00,,CLR,0.00,VWS V14.01,2013-05-14 05:33:00,
2013-05-14 00:39:00,60.1,48.9,29.98,SSW,192,8.3,8.3,66,0.00,,CLR,0.00,VWS V14.01,2013-05-14 05:39:00,
2013-05-14 00:44:00,60.1,48.9,29.98,South,186,5.4,8.1,66,0.00,,CLR,0.00,VWS V14.01,2013-05-14 05:44:00,
2013-05-14 00:49:00,59.9,48.7,29.95,SSW,196,3.6,7.6,66,0.00,,CLR,0.00,VWS V14.01,2013-05-14 05:49:00,
2013-05-14 00:54:00,59.9,48.7,29.95,SSW,211,5.4,6.7,66,0.00,,CLR,0.00,VWS V14.01,2013-05-14 05:54:00,
2013-05-14 00:59:00,59.7,48.6,29.95,SSE,152,8.7,8.7,66,0.00,,CLR,0.00,VWS V14.01,2013-05-14 05:59:00,
2013-05-14 01:04:00,59.7,48.6,29.95,SW,224,5.4,5.8,66,0.00,,CLR,0.00,VWS V14.01,2013-05-14 06:04:00,
2013-05-14 01:09:00,59.7,48.6,29.95,SW,227,5.8,9.2,66,0.00,,CLR,0.00,VWS V14.01,2013-05-14 06:09:00,
2013-05-14 01:14:00,59.5,48.4,29.95,SSW,192,5.4,8.7,66,0.00,,CLR,0.00,VWS V14.01,2013-05-14 06:14:00,
2013-05-14 01:19:00,59.4,48.2,29.95,SSW,200,5.4,8.1,66,0.00,,CLR,0.00,VWS V14.01,2013-05-14 06:19:00,
2013-05-14 01:24:00,59.4,48.2,29.95,SE,141,5.4,8.7,66,0.00,,CLR,0.00,VWS V14.01,2013-05-14 06:24:00,
2013-05-14 01:29:00,59.4,48.2,29.92,South,191,8.7,8.7,66,0.00,,CLR,0.00,VWS V14.01,2013-05-14 06:29:00,
2013-05-14 01:35:00,59.2,48.0,29.92,WSW,239,5.4,11.0,66,0.00,,CLR,0.00,VWS V14.01,2013-05-14 06:35:00,
2013-05-14 01:40:00,59.2,48.0,29.92,South,173,7.6,10.5,66,0.00,,CLR,0.00,VWS V14.01,2013-05-14 06:40:00,
2013-05-14 01:45:00,59.0,47.9,29.92,South,178,3.6,10.1,66,0.00,,CLR,0.00,VWS V14.01,2013-05-14 06:45:00,
2013-05-14 01:50:00,59.0,47.9,29.92,South,191,3.6,7.6,66,0.00,,CLR,0.00,VWS V14.01,2013-05-14 06:50:00,
2013-05-14 01:55:00,59.0,47.9,29.92,SSW,196,3.1,10.5,66,0.00,,CLR,0.00,VWS V14.01,2013-05-14 06:55:00,
2013-05-14 02:00:00,58.8,47.7,29.92,SSW,200,5.4,8.7,66,0.00,,CLR,0.00,VWS V14.01,2013-05-14 07:00:00,
2013-05-14 02:05:00,58.8,47.7,29.92,SSW,194,5.4,5.4,66,0.00,,CLR,0.00,VWS V14.01,2013-05-14 07:05:00,
2013-05-14 02:10:00,59.0,47.9,29.92,South,172,3.1,4.9,66,0.00,,CLR,0.00,VWS V14.01,2013-05-14 07:10:00,
2013-05-14 02:15:00,58.8,47.7,29.92,SSW,211,6.3,6.3,66,0.00,,CLR,0.00,VWS V14.01,2013-05-14 07:15:00,
2013-05-14 02:20:00,58.8,47.7,29.92,SSW,207,6.3,6.3,66,0.00,,CLR,0.00,VWS V14.01,2013-05-14 07:20:00,
2013-05-14 02:25:00,58.8,47.7,29.92,SSW,195,5.8,5.8,66,0.00,,CLR,0.00,VWS V14.01,2013-05-14 07:25:00,
2013-05-14 02:30:00,58.8,47.7,29.89,South,186,8.3,13.2,66,0.00,,CLR,0.00,VWS V14.01,2013-05-14 07:30:00,
2013-05-14 02:35:00,58.8,47.7,29.89,SSW,193,7.2,8.3,66,0.00,,CLR,0.00,VWS V14.01,2013-05-14 07:35:00,
2013-05-14 02:40:00,58.8,47.7,29.89,SW,228,4.0,8.3,66,0.00,,CLR,0.00,VWS V14.01,2013-05-14 07:40:00,
2013-05-14 02:46:00,58.8,47.7,29.89,SSE,150,5.8,5.8,66,0.00,,CLR,0.00,VWS V14.01,2013-05-14 07:46:00,
2013-05-14 02:51:00,58.8,47.7,29.89,SSE,155,4.0,5.8,66,0.00,,CLR,0.00,VWS V14.01,2013-05-14 07:51:00,
2013-05-14 02:56:00,58.8,47.7,29.89,SSE,168,3.6,8.7,66,0.00,,CLR,0.00,VWS V14.01,2013-05-14 07:56:00,
2013-05-14 03:01:00,58.8,47.7,29.89,South,176,4.9,8.3,66,0.00,,CLR,0.00,VWS V14.01,2013-05-14 08:01:00,
2013-05-14 03:06:00,58.6,47.5,29.89,SSE,164,3.6,6.7,66,0.00,,CLR,0.00,VWS V14.01,2013-05-14 08:06:00,
2013-05-14 03:11:00,58.6,47.5,29.89,SE,135,3.6,7.2,66,0.00,,CLR,0.00,VWS V14.01,2013-05-14 08:11:00,
2013-05-14 03:16:00,58.6,47.5,29.89,South,178,3.6,5.4,66,0.00,,CLR,0.00,VWS V14.01,2013-05-14 08:16:00,
2013-05-14 03:21:00,58.8,47.7,29.89,West,264,4.0,6.3,66,0.00,,CLR,0.00,VWS V14.01,2013-05-14 08:21:00,
2013-05-14 03:26:00,58.6,47.5,29.89,SSE,150,5.4,8.1,66,0.00,,CLR,0.00,VWS V14.01,2013-05-14 08:26:00,
2013-05-14 03:32:00,58.5,47.4,29.89,SSW,193,4.9,5.8,66,0.00,,CLR,0.00,VWS V14.01,2013-05-14 08:32:00,
2013-05-14 03:37:00,58.5,47.4,29.89,SSE,166,3.6,6.3,66,0.00,,CLR,0.00,VWS V14.01,2013-05-14 08:37:00,
2013-05-14 03:42:00,58.3,47.2,29.89,South,183,5.8,10.5,66,0.00,,CLR,0.00,VWS V14.01,2013-05-14 08:42:00,
2013-05-14 03:47:00,58.3,47.2,29.89,SSW,203,11.0,11.0,66,0.00,,CLR,0.00,VWS V14.01,2013-05-14 08:47:00,
2013-05-14 03:52:00,58.1,47.0,29.89,SSW,196,3.1,6.3,66,0.00,,CLR,0.00,VWS V14.01,2013-05-14 08:52:00,
2013-05-14 03:57:00,58.1,47.0,29.89,South,183,3.6,8.3,66,0.00,,CLR,0.00,VWS V14.01,2013-05-14 08:57:00,
2013-05-14 04:02:00,58.1,47.0,29.86,SSE,168,5.8,7.6,66,0.00,,CLR,0.00,VWS V14.01,2013-05-14 09:02:00,
2013-05-14 04:07:00,57.9,46.8,29.86,South,188,4.9,6.3,66,0.00,,CLR,0.00,VWS V14.01,2013-05-14 09:07:00,
2013-05-14 04:12:00,57.9,46.8,29.86,South,176,4.0,7.6,66,0.00,,CLR,0.00,VWS V14.01,2013-05-14 09:12:00,
2013-05-14 04:17:00,57.7,46.7,29.86,SW,215,5.4,12.8,66,0.00,,CLR,0.00,VWS V14.01,2013-05-14 09:17:00,
2013-05-14 04:22:00,57.6,46.5,29.86,SSE,164,6.3,8.7,66,0.00,,CLR,0.00,VWS V14.01,2013-05-14 09:22:00,
2013-05-14 04:27:00,57.6,46.5,29.86,SSW,208,3.1,6.3,66,0.00,,CLR,0.00,VWS V14.01,2013-05-14 09:27:00,
2013-05-14 04:33:00,57.4,46.3,29.86,South,176,5.8,6.3,66,0.00,,CLR,0.00,VWS V14.01,2013-05-14 09:33:00,
2013-05-14 04:38:00,57.4,46.3,29.86,South,182,3.1,6.3,66,0.00,,CLR,0.00,VWS V14.01,2013-05-14 09:38:00,
2013-05-14 04:43:00,57.2,46.2,29.86,South,174,7.6,7.6,66,0.00,,CLR,0.00,VWS V14.01,2013-05-14 09:43:00,
2013-05-14 04:48:00,57.0,47.3,29.86,SSW,195,5.8,8.7,70,0.00,,CLR,0.00,VWS V14.01,2013-05-14 09:48:00,
2013-05-14 04:53:00,57.0,47.3,29.86,SSE,155,3.6,5.8,70,0.00,,CLR,0.00,VWS V14.01,2013-05-14 09:53:00,
2013-05-14 04:58:00,57.0,47.3,29.86,SSW,201,4.0,5.8,70,0.00,,CLR,0.00,VWS V14.01,2013-05-14 09:58:00,
2013-05-14 05:03:00,57.0,47.3,29.86,SSE,155,3.1,8.7,70,0.00,,CLR,0.00,VWS V14.01,2013-05-14 10:03:00,
2013-05-14 05:08:00,57.0,47.3,29.86,West,265,6.3,10.1,70,0.00,,CLR,0.00,VWS V14.01,2013-05-14 10:08:00,
2013-05-14 05:13:00,56.8,47.2,29.86,South,181,3.6,6.7,70,0.00,,CLR,0.00,VWS V14.01,2013-05-14 10:13:00,
2013-05-14 05:18:00,56.8,47.2,29.86,SW,225,4.0,6.3,70,0.00,,CLR,0.00,VWS V14.01,2013-05-14 10:18:00,
2013-05-14 05:23:00,56.7,47.0,29.86,SSW,207,4.0,6.7,70,0.00,,CLR,0.00,VWS V14.01,2013-05-14 10:23:00,
2013-05-14 05:29:00,56.7,47.0,29.86,South,191,5.8,6.3,70,0.00,,CLR,0.00,VWS V14.01,2013-05-14 10:29:00,
2013-05-14 05:34:00,56.7,47.0,29.86,SSW,194,6.3,7.6,70,0.00,,CLR,0.00,VWS V14.01,2013-05-14 10:34:00,
2013-05-14 05:39:00,56.7,47.0,29.86,SW,216,5.4,6.3,70,0.00,,CLR,0.00,VWS V14.01,2013-05-14 10:39:00,
2013-05-14 05:44:00,56.7,47.0,29.86,SSE,156,3.6,5.8,70,0.00,,CLR,0.00,VWS V14.01,2013-05-14 10:44:00,
2013-05-14 05:49:00,56.5,46.8,29.83,South,170,3.1,7.6,70,0.00,,CLR,0.00,VWS V14.01,2013-05-14 10:49:00,
2013-05-14 05:54:00,56.5,46.8,29.83,SSE,149,4.0,8.7,70,0.00,,CLR,0.00,VWS V14.01,2013-05-14 10:54:00,
2013-05-14 05:59:00,56.5,46.8,29.83,South,183,5.8,7.6,70,0.00,,CLR,0.00,VWS V14.01,2013-05-14 10:59:00,
2013-05-14 06:04:00,56.5,46.8,29.83,South,187,4.0,12.3,70,0.00,,CLR,0.00,VWS V14.01,2013-05-14 11:04:00,
2013-05-14 06:09:00,56.5,46.8,29.83,SSW,199,6.3,11.0,70,0.00,,CLR,0.00,VWS V14.01,2013-05-14 11:09:00,
2013-05-14 06:14:00,56.7,47.0,29.83,West,277,5.8,8.1,70,0.00,,CLR,0.00,VWS V14.01,2013-05-14 11:14:00,
2013-05-14 06:19:00,56.7,47.0,29.83,SSW,200,4.9,7.6,70,0.00,,CLR,0.00,VWS V14.01,2013-05-14 11:19:00,
2013-05-14 06:24:00,56.7,47.0,29.83,SW,214,5.4,5.8,70,0.00,,CLR,0.00,VWS V14.01,2013-05-14 11:24:00,
2013-05-14 06:29:00,56.7,47.0,29.83,SW,222,3.6,11.0,70,0.00,,CLR,0.00,VWS V14.01,2013-05-14 11:29:00,
2013-05-14 06:35:00,56.8,47.2,29.83,South,172,4.0,10.5,70,0.00,,CLR,0.00,VWS V14.01,2013-05-14 11:35:00,
2013-05-14 06:40:00,57.0,47.3,29.83,SSW,196,8.7,13.2,70,0.00,,CLR,0.00,VWS V14.01,2013-05-14 11:40:00,
2013-05-14 06:45:00,57.2,46.2,29.83,SSE,166,5.4,8.7,66,0.00,,CLR,0.00,VWS V14.01,2013-05-14 11:45:00,
2013-05-14 06:50:00,57.4,46.3,29.83,SSE,148,4.9,7.6,66,0.00,,CLR,0.00,VWS V14.01,2013-05-14 11:50:00,
2013-05-14 06:55:00,57.6,46.5,29.83,South,182,4.9,4.9,66,0.00,,CLR,0.00,VWS V14.01,2013-05-14 11:55:00,
2013-05-14 07:00:00,57.6,46.5,29.83,North,0,5.4,5.4,66,0.00,,CLR,0.00,VWS V14.01,2013-05-14 12:00:00,
2013-05-14 07:05:00,57.7,46.7,29.83,SSE,164,3.6,6.3,66,0.00,,CLR,0.00,VWS V14.01,2013-05-14 12:05:00,
2013-05-14 07:10:00,57.9,46.8,29.83,SSW,199,8.3,8.3,66,0.00,,CLR,0.00,VWS V14.01,2013-05-14 12:10:00,
2013-05-14 07:15:00,58.1,47.0,29.83,SSW,203,4.0,5.4,66,0.00,,CLR,0.00,VWS V14.01,2013-05-14 12:15:00,
2013-05-14 07:20:00,58.1,47.0,29.83,South,189,5.4,8.1,66,0.00,,CLR,0.00,VWS V14.01,2013-05-14 12:20:00,
2013-05-14 07:25:00,58.5,47.4,29.83,WSW,238,4.9,5.8,66,0.00,,CLR,0.00,VWS V14.01,2013-05-14 12:25:00,
2013-05-14 07:30:00,58.6,47.5,29.83,SW,214,7.6,7.6,66,0.00,,CLR,0.00,VWS V14.01,2013-05-14 12:30:00,
2013-05-14 07:36:00,58.8,47.7,29.83,SSW,211,4.0,5.4,66,0.00,,CLR,0.00,VWS V14.01,2013-05-14 12:36:00,
2013-05-14 07:41:00,59.2,48.0,29.83,SSW,205,5.4,8.1,66,0.00,,CLR,0.00,VWS V14.01,2013-05-14 12:41:00,
2013-05-14 07:46:00,59.7,48.6,29.83,SSW,192,5.8,5.8,66,0.00,,CLR,0.00,VWS V14.01,2013-05-14 12:46:00,
2013-05-14 07:51:00,60.3,49.1,29.83,SSW,196,5.8,6.3,66,0.00,,CLR,0.00,VWS V14.01,2013-05-14 12:51:00,
2013-05-14 07:56:00,60.8,49.6,29.83,SSE,149,4.0,5.4,66,0.00,,CLR,0.00,VWS V14.01,2013-05-14 12:56:00,
2013-05-14 08:01:00,61.3,50.1,29.83,SSE,168,4.0,4.9,66,0.00,,CLR,0.00,VWS V14.01,2013-05-14 13:01:00,
2013-05-14 08:06:00,61.9,50.6,29.83,SW,217,3.6,5.8,66,0.00,,CLR,0.00,VWS V14.01,2013-05-14 13:06:00,
2013-05-14 08:11:00,62.6,49.8,29.83,SSW,210,8.1,8.7,63,0.00,,CLR,0.00,VWS V14.01,2013-05-14 13:11:00,
2013-05-14 08:16:00,63.1,50.3,29.83,SW,228,3.6,6.3,63,0.00,,CLR,0.00,VWS V14.01,2013-05-14 13:16:00,
2013-05-14 08:21:00,63.5,50.7,29.83,SSW,208,4.0,6.3,63,0.00,,CLR,0.00,VWS V14.01,2013-05-14 13:21:00,
2013-05-14 08:26:00,64.2,51.4,29.83,SW,216,2.7,4.0,63,0.00,,CLR,0.00,VWS V14.01,2013-05-14 13:26:00,
2013-05-14 08:32:00,64.8,51.9,29.80,SW,221,3.1,5.8,63,0.00,,CLR,0.00,VWS V14.01,2013-05-14 13:32:00,
2013-05-14 08:37:00,65.3,52.4,29.80,SSW,192,3.6,4.9,63,0.00,,CLR,0.00,VWS V14.01,2013-05-14 13:37:00,
2013-05-14 08:42:00,65.8,52.9,29.80,South,190,4.0,4.9,63,0.00,,CLR,0.00,VWS V14.01,2013-05-14 13:42:00,
2013-05-14 08:47:00,66.4,51.9,29.80,South,189,3.6,6.3,60,0.00,,CLR,0.00,VWS V14.01,2013-05-14 13:47:00,
2013-05-14 08:52:00,66.7,52.2,29.80,SW,222,3.1,8.3,60,0.00,,CLR,0.00,VWS V14.01,2013-05-14 13:52:00,
2013-05-14 08:57:00,66.9,52.4,29.80,South,183,3.6,4.9,60,0.00,,CLR,0.00,VWS V14.01,2013-05-14 13:57:00,
2013-05-14 09:02:00,67.5,52.9,29.80,SSW,204,6.3,6.3,60,0.00,,CLR,0.00,VWS V14.01,2013-05-14 14:02:00,
2013-05-14 09:07:00,67.8,53.2,29.80,SE,128,4.0,5.8,60,0.00,,CLR,0.00,VWS V14.01,2013-05-14 14:07:00,
2013-05-14 09:12:00,68.0,53.4,29.80,South,183,4.0,5.4,60,0.00,,CLR,0.00,VWS V14.01,2013-05-14 14:12:00,
2013-05-14 09:17:00,68.4,53.7,29.80,WSW,237,3.6,6.3,60,0.00,,CLR,0.00,VWS V14.01,2013-05-14 14:17:00,
2013-05-14 09:22:00,69.1,54.4,29.80,WSW,244,2.2,5.8,60,0.00,,CLR,0.00,VWS V14.01,2013-05-14 14:22:00,
2013-05-14 09:27:00,69.4,54.7,29.80,SSE,158,3.6,5.4,60,0.00,,CLR,0.00,VWS V14.01,2013-05-14 14:27:00,
2013-05-14 09:33:00,70.2,55.4,29.80,WSW,246,2.2,5.4,60,0.00,,CLR,0.00,VWS V14.01,2013-05-14 14:33:00,
2013-05-14 09:38:00,70.5,55.8,29.80,SW,226,3.1,6.7,60,0.00,,CLR,0.00,VWS V14.01,2013-05-14 14:38:00,
2013-05-14 09:43:00,70.7,55.9,29.80,SW,218,4.0,6.3,60,0.00,,CLR,0.00,VWS V14.01,2013-05-14 14:43:00,
2013-05-14 09:48:00,71.1,56.3,29.80,WSW,241,3.6,7.2,60,0.00,,CLR,0.00,VWS V14.01,2013-05-14 14:48:00,
2013-05-14 09:53:00,71.6,55.1,29.80,WSW,239,6.3,6.3,56,0.00,,CLR,0.00,VWS V14.01,2013-05-14 14:53:00,
2013-05-14 09:58:00,72.0,55.4,29.80,SSE,155,5.8,8.3,56,0.00,,CLR,0.00,VWS V14.01,2013-05-14 14:58:00,
2013-05-14 10:03:00,72.1,60.4,29.78,SSW,208,3.6,5.4,66,0.00,,CLR,0.00,VWS V14.01,2013-05-14 15:03:00,
2013-05-14 10:08:00,72.3,60.5,29.78,SSW,196,3.1,7.6,66,0.00,,CLR,0.00,VWS V14.01,2013-05-14 15:08:00,
2013-05-14 10:13:00,72.5,60.7,29.78,WSW,249,3.6,6.3,66,0.00,,CLR,0.00,VWS V14.01,2013-05-14 15:13:00,
2013-05-14 10:18:00,73.0,61.2,29.80,SW,214,3.1,6.3,66,0.00,,CLR,0.00,VWS V14.01,2013-05-14 15:18:00,
2013-05-14 10:23:00,73.2,61.4,29.80,SW,236,4.0,5.4,66,0.00,,CLR,0.00,VWS V14.01,2013-05-14 15:23:00,
2013-05-14 10:29:00,73.6,60.2,29.80,South,176,2.7,6.7,63,0.00,,CLR,0.00,VWS V14.01,2013-05-14 15:29:00,
2013-05-14 10:34:00,73.9,60.6,29.80,SSE,162,2.7,7.2,63,0.00,,CLR,0.00,VWS V14.01,2013-05-14 15:34:00,
2013-05-14 10:39:00,74.1,60.7,29.80,WSW,244,0.0,6.3,63,0.00,,CLR,0.00,VWS V14.01,2013-05-14 15:39:00,
2013-05-14 10:44:00,74.8,61.4,29.78,SSW,205,4.9,5.4,63,0.00,,CLR,0.00,VWS V14.01,2013-05-14 15:44:00,
2013-05-14 10:49:00,75.4,61.9,29.78,SE,139,3.6,6.3,63,0.00,,CLR,0.00,VWS V14.01,2013-05-14 15:49:00,
2013-05-14 10:54:00,75.7,62.3,29.78,SW,226,3.1,4.0,63,0.00,,CLR,0.00,VWS V14.01,2013-05-14 15:54:00,
2013-05-14 10:59:00,75.9,62.4,29.80,SW,229,0.0,4.0,63,0.00,,CLR,0.00,VWS V14.01,2013-05-14 15:59:00,
2013-05-14 11:04:00,76.3,62.8,29.80,South,189,2.7,6.3,63,0.00,,CLR,0.00,VWS V14.01,2013-05-14 16:04:00,
2013-05-14 11:09:00,76.6,63.1,29.80,South,183,5.8,7.6,63,0.00,,CLR,0.00,VWS V14.01,2013-05-14 16:09:00,
2013-05-14 11:14:00,77.2,63.6,29.80,NW,322,3.1,5.4,63,0.00,,CLR,0.00,VWS V14.01,2013-05-14 16:14:00,
2013-05-14 11:20:00,77.9,64.3,29.80,SW,220,2.2,4.9,63,0.00,,CLR,0.00,VWS V14.01,2013-05-14 16:20:00,
2013-05-14 11:25:00,78.3,64.6,29.80,SSW,205,3.1,6.3,63,0.00,,CLR,0.00,VWS V14.01,2013-05-14 16:25:00,
2013-05-14 11:30:00,78.4,64.8,29.80,WSW,243,0.0,5.8,63,0.00,,CLR,0.00,VWS V14.01,2013-05-14 16:30:00,
2013-05-14 11:35:00,79.5,64.2,29.80,SW,235,3.1,4.9,60,0.00,,CLR,0.00,VWS V14.01,2013-05-14 16:35:00,
2013-05-14 11:40:00,80.2,64.9,29.80,SSW,192,2.2,3.1,60,0.00,,CLR,0.00,VWS V14.01,2013-05-14 16:40:00,
2013-05-14 11:45:00,80.8,65.4,29.80,West,272,4.0,4.0,60,0.00,,CLR,0.00,VWS V14.01,2013-05-14 16:45:00,
2013-05-14 11:50:00,81.3,65.9,29.80,West,272,5.8,5.8,60,0.00,,CLR,0.00,VWS V14.01,2013-05-14 16:50:00,
2013-05-14 11:55:00,81.7,66.2,29.80,SW,235,0.0,3.6,60,0.00,,CLR,0.00,VWS V14.01,2013-05-14 16:55:00,
2013-05-14 12:00:00,81.5,66.1,29.80,WSW,245,0.0,3.1,60,0.00,,CLR,0.00,VWS V14.01,2013-05-14 17:00:00,
2013-05-14 12:05:00,82.0,66.6,29.80,WSW,238,2.7,4.0,60,0.00,,CLR,0.00,VWS V14.01,2013-05-14 17:05:00,
2013-05-14 12:10:00,82.2,66.7,29.80,South,177,4.0,5.8,60,0.00,,CLR,0.00,VWS V14.01,2013-05-14 17:10:00,
2013-05-14 12:16:00,82.6,65.3,29.80,SW,222,4.0,4.0,56,0.00,,CLR,0.00,VWS V14.01,2013-05-14 17:16:00,
2013-05-14 12:21:00,83.3,66.0,29.80,WSW,238,3.6,5.4,56,0.00,,CLR,0.00,VWS V14.01,2013-05-14 17:21:00,
2013-05-14 12:26:00,83.7,66.3,29.80,South,169,4.0,5.8,56,0.00,,CLR,0.00,VWS V14.01,2013-05-14 17:26:00,
2013-05-14 12:31:00,83.7,66.3,29.80,WSW,238,6.3,6.3,56,0.00,,CLR,0.00,VWS V14.01,2013-05-14 17:31:00,
2013-05-14 12:36:00,83.7,66.3,29.80,SSE,149,3.6,5.4,56,0.00,,CLR,0.00,VWS V14.01,2013-05-14 17:36:00,
2013-05-14 12:41:00,84.0,66.7,29.80,SSW,206,4.9,4.9,56,0.00,,CLR,0.00,VWS V14.01,2013-05-14 17:41:00,
2013-05-14 12:46:00,84.6,67.2,29.80,WSW,246,0.0,5.4,56,0.00,,CLR,0.00,VWS V14.01,2013-05-14 17:46:00,
2013-05-14 12:51:00,84.6,67.2,29.80,WSW,258,0.0,4.0,56,0.00,,CLR,0.00,VWS V14.01,2013-05-14 17:51:00,
2013-05-14 12:56:00,84.6,67.2,29.80,West,274,0.0,4.0,56,0.00,,CLR,0.00,VWS V14.01,2013-05-14 17:56:00,
2013-05-14 13:01:00,85.1,67.7,29.80,SSW,201,4.9,5.4,56,0.00,,CLR,0.00,VWS V14.01,2013-05-14 18:01:00,
2013-05-14 13:06:00,85.5,68.0,29.80,SSW,205,3.1,5.8,56,0.00,,CLR,0.00,VWS V14.01,2013-05-14 18:06:00,
2013-05-14 13:11:00,85.8,68.3,29.80,SSW,206,5.4,5.4,56,0.00,,CLR,0.00,VWS V14.01,2013-05-14 18:11:00,
2013-05-14 13:17:00,85.8,68.3,29.80,WSW,243,0.0,4.0,56,0.00,,CLR,0.00,VWS V14.01,2013-05-14 18:17:00,
2013-05-14 13:22:00,86.2,68.7,29.80,NW,313,4.9,5.4,56,0.00,,CLR,0.00,VWS V14.01,2013-05-14 18:22:00,
2013-05-14 13:27:00,86.7,69.2,29.80,SW,216,6.3,6.3,56,0.00,,CLR,0.00,VWS V14.01,2013-05-14 18:27:00,
2013-05-14 13:32:00,86.9,69.3,29.80,SSW,210,3.1,4.9,56,0.00,,CLR,0.00,VWS V14.01,2013-05-14 18:32:00,
2013-05-14 13:37:00,87.3,69.7,29.80,WNW,292,0.0,4.0,56,0.00,,CLR,0.00,VWS V14.01,2013-05-14 18:37:00,
2013-05-14 13:42:00,87.6,70.0,29.80,SW,221,3.6,6.3,56,0.00,,CLR,0.00,VWS V14.01,2013-05-14 18:42:00,
2013-05-14 13:47:00,87.6,70.0,29.80,WSW,239,4.0,5.8,56,0.00,,CLR,0.00,VWS V14.01,2013-05-14 18:47:00,
2013-05-14 13:52:00,87.6,70.0,29.80,SSW,202,4.9,5.8,56,0.00,,CLR,0.00,VWS V14.01,2013-05-14 18:52:00,
2013-05-14 13:57:00,87.6,70.0,29.80,WSW,238,2.2,7.2,56,0.00,,CLR,0.00,VWS V14.01,2013-05-14 18:57:00,
2013-05-14 14:02:00,87.8,68.3,29.78,SSW,194,4.9,6.3,52,0.00,,CLR,0.00,VWS V14.01,2013-05-14 19:02:00,
2013-05-14 14:07:00,87.8,68.3,29.78,SW,225,3.1,5.8,52,0.00,,CLR,0.00,VWS V14.01,2013-05-14 19:07:00,
2013-05-14 14:12:00,88.0,68.4,29.78,WNW,302,3.1,5.4,52,0.00,,CLR,0.00,VWS V14.01,2013-05-14 19:12:00,
2013-05-14 14:18:00,88.3,68.8,29.78,SSW,205,0.0,5.4,52,0.00,,CLR,0.00,VWS V14.01,2013-05-14 19:18:00,
2013-05-14 14:23:00,88.7,69.1,29.78,South,183,0.0,6.3,52,0.00,,CLR,0.00,VWS V14.01,2013-05-14 19:23:00,
2013-05-14 14:28:00,88.7,69.1,29.78,SSW,205,4.0,4.9,52,0.00,,CLR,0.00,VWS V14.01,2013-05-14 19:28:00,
2013-05-14 14:33:00,89.1,69.4,29.78,SSW,195,4.0,5.8,52,0.00,,CLR,0.00,VWS V14.01,2013-05-14 19:33:00,
2013-05-14 14:38:00,89.2,69.6,29.78,SSW,196,3.1,5.4,52,0.00,,CLR,0.00,VWS V14.01,2013-05-14 19:38:00,
2013-05-14 14:43:00,89.2,69.6,29.78,SSW,204,3.1,7.6,52,0.00,,CLR,0.00,VWS V14.01,2013-05-14 19:43:00,
2013-05-14 14:48:00,89.2,69.6,29.78,South,182,5.8,8.1,52,0.00,,CLR,0.00,VWS V14.01,2013-05-14 19:48:00,
2013-05-14 14:53:00,88.9,69.3,29.78,South,176,3.6,5.8,52,0.00,,CLR,0.00,VWS V14.01,2013-05-14 19:53:00,
2013-05-14 14:58:00,89.1,69.4,29.78,SW,214,4.0,5.8,52,0.00,,CLR,0.00,VWS V14.01,2013-05-14 19:58:00,
2013-05-14 15:03:00,89.4,69.8,29.78,SSE,149,5.4,5.4,52,0.00,,CLR,0.00,VWS V14.01,2013-05-14 20:03:00,
2013-05-14 15:08:00,89.2,69.6,29.78,South,191,5.8,8.1,52,0.00,,CLR,0.00,VWS V14.01,2013-05-14 20:08:00,
2013-05-14 15:13:00,89.4,69.8,29.78,SSW,206,2.7,5.8,52,0.00,,CLR,0.00,VWS V14.01,2013-05-14 20:13:00,
2013-05-14 15:19:00,90.0,70.3,29.78,SW,217,3.6,5.4,52,0.00,,CLR,0.00,VWS V14.01,2013-05-14 20:19:00,
2013-05-14 15:24:00,90.7,70.9,29.78,SSW,210,3.1,5.8,52,0.00,,CLR,0.00,VWS V14.01,2013-05-14 20:24:00,
2013-05-14 15:29:00,90.7,70.9,29.78,SW,227,0.0,5.4,52,0.00,,CLR,0.00,VWS V14.01,2013-05-14 20:29:00,
2013-05-14 15:34:00,90.5,70.8,29.78,SW,216,3.1,4.0,52,0.00,,CLR,0.00,VWS V14.01,2013-05-14 20:34:00,
2013-05-14 15:39:00,90.7,70.9,29.78,SSW,192,5.4,6.3,52,0.00,,CLR,0.00,VWS V14.01,2013-05-14 20:39:00,
2013-05-14 15:44:00,90.5,70.8,29.78,SW,230,2.7,8.7,52,0.00,,CLR,0.00,VWS V14.01,2013-05-14 20:44:00,
2013-05-14 15:49:00,90.9,71.1,29.78,SW,215,0.0,5.8,52,0.00,,CLR,0.00,VWS V14.01,2013-05-14 20:49:00,
2013-05-14 15:54:00,91.0,71.3,29.78,South,181,5.4,7.6,52,0.00,,CLR,0.00,VWS V14.01,2013-05-14 20:54:00,
2013-05-14 15:59:00,91.0,71.3,29.78,SSW,205,0.0,4.0,52,0.00,,CLR,0.00,VWS V14.01,2013-05-14 20:59:00,
2013-05-14 16:04:00,91.2,71.4,29.78,WSW,252,4.0,5.8,52,0.00,,CLR,0.00,VWS V14.01,2013-05-14 21:04:00,
2013-05-14 16:10:00,91.6,69.7,29.78,South,191,2.2,5.8,49,0.00,,CLR,0.00,VWS V14.01,2013-05-14 21:10:00,
2013-05-14 16:15:00,91.2,71.4,29.78,SW,218,4.0,6.3,52,0.00,,CLR,0.00,VWS V14.01,2013-05-14 21:15:00,
2013-05-14 16:20:00,91.2,71.4,29.78,SSW,206,2.7,2.7,52,0.00,,CLR,0.00,VWS V14.01,2013-05-14 21:20:00,
2013-05-14 16:25:00,91.4,69.6,29.78,SSE,152,3.1,6.3,49,0.00,,CLR,0.00,VWS V14.01,2013-05-14 21:25:00,
2013-05-14 16:30:00,91.6,69.7,29.78,SSW,201,2.7,2.7,49,0.00,,CLR,0.00,VWS V14.01,2013-05-14 21:30:00,
2013-05-14 16:35:00,92.1,70.2,29.78,SSW,209,0.0,0.0,49,0.00,,CLR,0.00,VWS V14.01,2013-05-14 21:35:00,
2013-05-14 16:40:00,92.8,70.9,29.78,SW,227,0.0,0.0,49,0.00,,CLR,0.00,VWS V14.01,2013-05-14 21:40:00,
2013-05-14 16:45:00,92.3,70.4,29.78,NNW,333,2.2,2.2,49,0.00,,CLR,0.00,VWS V14.01,2013-05-14 21:45:00,
2013-05-14 16:50:00,91.9,70.1,29.78,WSW,237,0.0,5.4,49,0.00,,CLR,0.00,VWS V14.01,2013-05-14 21:50:00,
2013-05-14 16:55:00,92.1,70.2,29.78,South,191,5.8,7.6,49,0.00,,CLR,0.00,VWS V14.01,2013-05-14 21:55:00,
2013-05-14 17:01:00,91.8,69.9,29.75,South,182,5.4,7.6,49,0.00,,CLR,0.00,VWS V14.01,2013-05-14 22:01:00,
2013-05-14 17:06:00,91.0,71.3,29.75,South,190,4.0,8.1,52,0.00,,CLR,0.00,VWS V14.01,2013-05-14 22:06:00,
2013-05-14 17:11:00,91.0,71.3,29.75,SSW,199,6.3,7.6,52,0.00,,CLR,0.00,VWS V14.01,2013-05-14 22:11:00,
2013-05-14 17:16:00,91.2,71.4,29.75,South,187,5.8,5.8,52,0.00,,CLR,0.00,VWS V14.01,2013-05-14 22:16:00,
2013-05-14 17:21:00,91.6,69.7,29.75,WSW,258,2.7,4.0,49,0.00,,CLR,0.00,VWS V14.01,2013-05-14 22:21:00,
2013-05-14 17:26:00,91.6,69.7,29.75,SW,225,3.1,6.3,49,0.00,,CLR,0.00,VWS V14.01,2013-05-14 22:26:00,
2013-05-14 17:31:00,91.8,69.9,29.75,SSW,201,5.4,5.4,49,0.00,,CLR,0.00,VWS V14.01,2013-05-14 22:31:00,
2013-05-14 17:36:00,91.8,69.9,29.75,SSW,206,3.1,4.0,49,0.00,,CLR,0.00,VWS V14.01,2013-05-14 22:36:00,
2013-05-14 17:41:00,91.6,69.7,29.75,SW,216,5.4,5.8,49,0.00,,CLR,0.00,VWS V14.01,2013-05-14 22:41:00,
2013-05-14 17:46:00,91.2,71.4,29.75,West,261,4.0,5.8,52,0.00,,CLR,0.00,VWS V14.01,2013-05-14 22:46:00,
2013-05-14 17:51:00,90.9,71.1,29.75,South,186,4.0,5.8,52,0.00,,CLR,0.00,VWS V14.01,2013-05-14 22:51:00,
2013-05-14 17:56:00,90.7,70.9,29.75,SSW,207,3.6,14.1,52,0.00,,CLR,0.00,VWS V14.01,2013-05-14 22:56:00,
2013-05-14 18:02:00,90.5,70.8,29.75,SSW,192,3.6,4.5,52,0.00,,CLR,0.00,VWS V14.01,2013-05-14 23:02:00,
2013-05-14 18:07:00,90.1,70.4,29.75,NW,307,3.1,4.0,52,0.00,,CLR,0.00,VWS V14.01,2013-05-14 23:07:00,
2013-05-14 18:12:00,90.3,70.6,29.75,SW,233,7.6,7.6,52,0.00,,CLR,0.00,VWS V14.01,2013-05-14 23:12:00,
2013-05-14 18:17:00,90.1,70.4,29.75,West,260,7.6,7.6,52,0.00,,CLR,0.00,VWS V14.01,2013-05-14 23:17:00,
2013-05-14 18:22:00,90.0,70.3,29.75,SW,233,3.6,7.6,52,0.00,,CLR,0.00,VWS V14.01,2013-05-14 23:22:00,
2013-05-14 18:27:00,89.6,69.9,29.75,WSW,241,2.2,5.4,52,0.00,,CLR,0.00,VWS V14.01,2013-05-14 23:27:00,
2013-05-14 18:32:00,89.2,69.6,29.75,SW,216,4.9,5.8,52,0.00,,CLR,0.00,VWS V14.01,2013-05-14 23:32:00,
2013-05-14 18:37:00,89.2,69.6,29.75,SW,219,5.8,5.8,52,0.00,,CLR,0.00,VWS V14.01,2013-05-14 23:37:00,
2013-05-14 18:42:00,89.1,69.4,29.75,SSW,205,3.1,8.3,52,0.00,,CLR,0.00,VWS V14.01,2013-05-14 23:42:00,
2013-05-14 18:47:00,88.5,68.9,29.75,SSW,202,6.3,8.3,52,0.00,,CLR,0.00,VWS V14.01,2013-05-14 23:47:00,
2013-05-14 18:52:00,88.2,68.6,29.75,SW,226,6.3,7.6,52,0.00,,CLR,0.00,VWS V14.01,2013-05-14 23:52:00,
2013-05-14 18:58:00,87.4,69.8,29.75,SSW,210,3.6,7.6,56,0.00,,CLR,0.00,VWS V14.01,2013-05-14 23:58:00,
2013-05-14 19:03:00,86.9,69.3,29.72,SSW,211,5.4,6.3,56,0.00,,CLR,0.00,VWS V14.01,2013-05-15 00:03:00,
2013-05-14 19:08:00,86.4,68.8,29.72,WSW,249,3.6,10.1,56,0.00,,CLR,0.00,VWS V14.01,2013-05-15 00:08:00,
2013-05-14 19:13:00,85.8,68.3,29.72,WNW,286,5.8,8.1,56,0.00,,CLR,0.00,VWS V14.01,2013-05-15 00:13:00,
2013-05-14 19:18:00,85.6,68.2,29.72,South,188,5.4,7.2,56,0.00,,CLR,0.00,VWS V14.01,2013-05-15 00:18:00,
2013-05-14 19:23:00,85.5,68.0,29.72,West,261,5.4,7.6,56,0.00,,CLR,0.00,VWS V14.01,2013-05-15 00:23:00,
2013-05-14 19:28:00,85.3,67.8,29.72,SSW,210,3.1,8.1,56,0.00,,CLR,0.00,VWS V14.01,2013-05-15 00:28:00,
2013-05-14 19:33:00,85.1,67.7,29.72,SSE,163,3.1,6.7,56,0.00,,CLR,0.00,VWS V14.01,2013-05-15 00:33:00,
2013-05-14 19:38:00,84.9,67.5,29.72,WNW,289,5.8,5.8,56,0.00,,CLR,0.00,VWS V14.01,2013-05-15 00:38:00,
2013-05-14 19:43:00,84.4,67.0,29.72,South,185,5.4,7.6,56,0.00,,CLR,0.00,VWS V14.01,2013-05-15 00:43:00,
2013-05-14 19:48:00,84.0,66.7,29.72,SW,219,4.0,7.6,56,0.00,,CLR,0.00,VWS V14.01,2013-05-15 00:48:00,
2013-05-14 19:54:00,83.8,66.5,29.72,WSW,237,3.6,5.8,56,0.00,,CLR,0.00,VWS V14.01,2013-05-15 00:54:00,
2013-05-14 19:59:00,83.7,66.3,29.72,South,171,4.0,5.8,56,0.00,,CLR,0.00,VWS V14.01,2013-05-15 00:59:00,
2013-05-14 20:04:00,83.1,65.8,29.72,SSW,212,2.7,5.8,56,0.00,,CLR,0.00,VWS V14.01,2013-05-15 01:04:00,
2013-05-14 20:09:00,82.8,65.5,29.72,SSW,207,3.1,6.3,56,0.00,,CLR,0.00,VWS V14.01,2013-05-15 01:09:00,
2013-05-14 20:14:00,82.4,65.1,29.72,SSE,151,8.1,8.1,56,0.00,,CLR,0.00,VWS V14.01,2013-05-15 01:14:00,
2013-05-14 20:19:00,82.0,66.6,29.75,South,171,2.7,4.9,60,0.00,,CLR,0.00,VWS V14.01,2013-05-15 01:19:00,
2013-05-14 20:24:00,81.7,66.2,29.75,SSW,212,3.6,3.6,60,0.00,,CLR,0.00,VWS V14.01,2013-05-15 01:24:00,
2013-05-14 20:29:00,81.1,65.7,29.75,South,178,0.0,4.9,60,0.00,,CLR,0.00,VWS V14.01,2013-05-15 01:29:00,
2013-05-14 20:34:00,80.8,65.4,29.75,West,262,4.0,4.9,60,0.00,,CLR,0.00,VWS V14.01,2013-05-15 01:34:00,
2013-05-14 20:39:00,80.4,65.0,29.75,SW,219,0.0,4.0,60,0.00,,CLR,0.00,VWS V14.01,2013-05-15 01:39:00,
2013-05-14 20:44:00,79.9,64.5,29.75,SSW,208,0.0,3.6,60,0.00,,CLR,0.00,VWS V14.01,2013-05-15 01:44:00,
2013-05-14 20:50:00,79.5,64.2,29.75,SSW,194,0.0,0.0,60,0.00,,CLR,0.00,VWS V14.01,2013-05-15 01:50:00,
2013-05-14 20:55:00,79.3,64.0,29.75,SSW,195,3.1,3.6,60,0.00,,CLR,0.00,VWS V14.01,2013-05-15 01:55:00,
2013-05-14 21:00:00,79.2,63.8,29.75,South,178,2.7,4.0,60,0.00,,CLR,0.00,VWS V14.01,2013-05-15 02:00:00,
2013-05-14 21:05:00,79.0,63.7,29.75,SSW,199,3.1,4.0,60,0.00,,CLR,0.00,VWS V14.01,2013-05-15 02:05:00,
2013-05-14 21:10:00,79.0,63.7,29.75,SSW,192,0.0,4.0,60,0.00,,CLR,0.00,VWS V14.01,2013-05-15 02:10:00,
2013-05-14 21:15:00,78.8,63.5,29.75,SW,228,0.0,0.0,60,0.00,,CLR,0.00,VWS V14.01,2013-05-15 02:15:00,
2013-05-14 21:20:00,78.6,65.0,29.75,SSW,203,0.0,0.0,63,0.00,,CLR,0.00,VWS V14.01,2013-05-15 02:20:00,
2013-05-14 21:25:00,78.4,64.8,29.75,SW,225,3.6,3.6,63,0.00,,CLR,0.00,VWS V14.01,2013-05-15 02:25:00,
2013-05-14 21:30:00,78.3,64.6,29.75,SSW,203,3.6,3.6,63,0.00,,CLR,0.00,VWS V14.01,2013-05-15 02:30:00,
2013-05-14 21:35:00,78.1,64.5,29.75,SW,219,0.0,0.0,63,0.00,,CLR,0.00,VWS V14.01,2013-05-15 02:35:00,
2013-05-14 21:40:00,77.9,64.3,29.75,SW,215,0.0,4.0,63,0.00,,CLR,0.00,VWS V14.01,2013-05-15 02:40:00,
2013-05-14 21:45:00,77.7,64.1,29.75,SSW,208,3.6,5.4,63,0.00,,CLR,0.00,VWS V14.01,2013-05-15 02:45:00,
2013-05-14 21:50:00,77.7,64.1,29.75,South,179,0.0,0.0,63,0.00,,CLR,0.00,VWS V14.01,2013-05-15 02:50:00,
2013-05-14 21:55:00,77.7,64.1,29.75,WSW,239,4.0,4.0,63,0.00,,CLR,0.00,VWS V14.01,2013-05-15 02:55:00,
2013-05-14 22:01:00,77.7,64.1,29.75,SSW,204,2.2,4.9,63,0.00,,CLR,0.00,VWS V14.01,2013-05-15 03:01:00,
2013-05-14 22:06:00,77.5,64.0,29.75,SSE,164,2.7,3.6,63,0.00,,CLR,0.00,VWS V14.01,2013-05-15 03:06:00,
2013-05-14 22:11:00,77.7,64.1,29.75,SW,231,3.6,5.4,63,0.00,,CLR,0.00,VWS V14.01,2013-05-15 03:11:00,
2013-05-14 22:16:00,77.9,64.3,29.75,SSW,196,3.6,4.0,63,0.00,,CLR,0.00,VWS V14.01,2013-05-15 03:16:00,
2013-05-14 22:21:00,77.7,64.1,29.75,SW,223,4.0,4.0,63,0.00,,CLR,0.00,VWS V14.01,2013-05-15 03:21:00,
2013-05-14 22:26:00,77.7,64.1,29.75,SW,221,4.0,6.7,63,0.00,,CLR,0.00,VWS V14.01,2013-05-15 03:26:00,
2013-05-14 22:31:00,77.5,64.0,29.75,South,176,2.7,4.9,63,0.00,,CLR,0.00,VWS V14.01,2013-05-15 03:31:00,
2013-05-14 22:36:00,77.4,63.8,29.75,South,191,0.0,4.0,63,0.00,,CLR,0.00,VWS V14.01,2013-05-15 03:36:00,
2013-05-14 22:41:00,77.2,63.6,29.75,South,188,3.1,4.0,63,0.00,,CLR,0.00,VWS V14.01,2013-05-15 03:41:00,
2013-05-14 22:46:00,77.0,63.5,29.75,SW,226,4.0,4.5,63,0.00,,CLR,0.00,VWS V14.01,2013-05-15 03:46:00,
2013-05-14 22:51:00,76.8,63.3,29.75,SW,226,0.0,4.9,63,0.00,,CLR,0.00,VWS V14.01,2013-05-15 03:51:00,
2013-05-14 22:57:00,76.6,63.1,29.75,SW,233,4.9,5.4,63,0.00,,CLR,0.00,VWS V14.01,2013-05-15 03:57:00,
2013-05-14 23:01:00,76.5,62.9,29.75,SW,233,3.6,5.8,63,0.00,,CLR,0.00,VWS V14.01,2013-05-15 04:01:00,
2013-05-14 23:07:00,76.6,63.1,29.75,SSW,193,4.0,5.4,63,0.00,,CLR,0.00,VWS V14.01,2013-05-15 04:07:00,
2013-05-14 23:12:00,76.6,63.1,29.75,SW,216,4.9,4.9,63,0.00,,CLR,0.00,VWS V14.01,2013-05-15 04:12:00,
2013-05-14 23:17:00,76.6,63.1,29.75,SSW,211,2.2,7.6,63,0.00,,CLR,0.00,VWS V14.01,2013-05-15 04:17:00,
2013-05-14 23:22:00,76.5,62.9,29.75,SSW,209,2.7,6.3,63,0.00,,CLR,0.00,VWS V14.01,2013-05-15 04:22:00,
2013-05-14 23:27:00,76.5,62.9,29.75,SW,217,3.6,4.0,63,0.00,,CLR,0.00,VWS V14.01,2013-05-15 04:27:00,
2013-05-14 23:32:00,76.5,62.9,29.75,SSW,207,4.0,5.8,63,0.00,,CLR,0.00,VWS V14.01,2013-05-15 04:32:00,
2013-05-14 23:37:00,76.5,62.9,29.75,West,275,2.7,4.9,63,0.00,,CLR,0.00,VWS V14.01,2013-05-15 04:37:00,
2013-05-14 23:42:00,76.6,63.1,29.75,SW,221,5.8,8.7,63,0.00,,CLR,0.00,VWS V14.01,2013-05-15 04:42:00,
2013-05-14 23:47:00,76.8,63.3,29.75,WSW,238,2.7,10.1,63,0.00,,CLR,0.00,VWS V14.01,2013-05-15 04:47:00,
2013-05-14 23:52:00,77.0,63.5,29.75,SW,218,5.8,5.8,63,0.00,,CLR,0.00,VWS V14.01,2013-05-15 04:52:00,
2013-05-14 23:57:00,77.2,63.6,29.75,South,191,3.1,7.2,63,0.00,,CLR,0.00,VWS V14.01,2013-05-15 04:57:00,